This demonstration page uses our WeatherBlox Daily Observations layout. Learn more.

38.89511, -77.03637

Hourly Observations for May 16, 2019

Temp ( °F °C ) Dew Point ( °F °C ) Humidity (%) Winds ( mph kmh ) Pressure ( in mb ) Visibility ( mi km ) Precip ( " mm )
12:52 am 00:52 Mostly Cloudy 60 15.6 50 10 70 70 S 7 11 29.91 1013 10 16.09344 0 0
1:52 am 01:52 Mostly Cloudy 59 15 52 11.1 78 78 S 6 9 29.88 1012 10 16.09344 0 0
2:52 am 02:52 Mostly Cloudy 58 14.4 50 10 75 75 S 6 9 29.88 1012 10 16.09344 0 0
3:52 am 03:52 Mostly Cloudy 57 13.9 51 10.6 81 81 S 7 11 29.88 1012 10 16.09344 0 0
4:52 am 04:52 Mostly Cloudy 57 13.9 51 10.6 81 81 S 7 11 29.88 1012 10 16.09344 0 0
5:52 am 05:52 Mostly Cloudy 57 13.9 51 10.6 81 81 S 7 11 29.88 1012 10 16.09344 0 0
6:52 am 06:52 Mostly Cloudy 59 15 51 10.6 75 75 Calm 29.91 1013 10 16.09344 0 0
7:52 am 07:52 Cloudy with Light Rain 59 15 50 10 72 72 N 6 9 29.94 1014 10 16.09344 0.001 0.001
8:52 am 08:52 Cloudy 60 15.6 50 10 70 70 Calm 29.94 1014 10 16.09344 0.01 0.254
9:52 am 09:52 Partly Cloudy 63 17.2 51 10.6 65 65 SSE 6 9 29.94 1014 10 16.09344 0 0
10:52 am 10:52 Partly Cloudy 67 19.4 52 11.1 59 59 VRB 5 7 29.94 1014 10 16.09344 0 0
11:52 am 11:52 Mostly Sunny 71 21.7 53 11.7 53 53 S 7 11 29.91 1013 10 16.09344 0 0
12:52 pm 12:52 Partly Cloudy 76 24.4 51 10.6 42 42 NNW 8 13 29.91 1013 10 16.09344 0 0
1:52 pm 13:52 Partly Cloudy 77 25 51 10.6 40 40 NW 13 20 29.88 1012 10 16.09344 0 0
2:52 pm 14:52 Partly Cloudy 76 24.4 46 7.8 35 35 WNW 15 24 29.88 1012 10 16.09344 0 0
4:52 pm 16:52 Partly Cloudy 78 25.6 43 6.1 29 29 VRB 6 9 29.85 1011 10 16.09344 0 0
5:52 pm 17:52 Partly Cloudy 79 26.1 44 6.7 29 29 NNW 6 9 29.85 1011 10 16.09344 0 0
6:52 pm 18:52 Mostly Cloudy 75 23.9 46 7.8 36 36 N 7 11 29.83 1010 10 16.09344 0 0
7:52 pm 19:52 Cloudy 73 22.8 45 7.2 37 37 Calm 29.85 1011 10 16.09344 0 0
8:52 pm 20:52 Cloudy 69 20.6 50 10 51 51 ESE 7 11 29.85 1011 10 16.09344 0 0
9:52 pm 21:52 Cloudy 66 18.9 55 12.8 68 68 S 8 13 29.88 1012 10 16.09344 0 0
10:52 pm 22:52 Mostly Cloudy 65 18.3 56 13.3 73 73 S 7 11 29.88 1012 10 16.09344 0 0
11:52 pm 23:52 Partly Cloudy 63 17.2 56 13.3 78 78 S 7 11 29.88 1012 10 16.09344 0 0

Powered by AerisWeather